Location: Colonia Mina de C?rbuni
(46.1667°N, 22.7167°E)
Time: 20:58:02
(UTC+00:00)

Tiros 1 - Pass Details

Date: 21 April 2024
Orbit: 624 x 657 km, 48.4° (Epoch: 28 May)

Event Time Altitude Azimuth Distance (km) Brightness Sun altitude
Rises 03:58:19 0° 288° (WNW) 2,909 10.0 3.6°
Reaches altitude 10° 04:00:45 10° 281° (W) 1,997 9.1 4.0°
Maximum altitude 04:04:59 37° 214° (SSW) 965 7.8 4.7°
Drops below altitude 10° 04:09:11 10° 146° (SSE) 1,987 10.0 5.5°
Sets 04:11:36 0° 139° (SE) 2,893 10.9 5.9°
